Regional Weather Roundup
Issued by NWS

Home | Current Version | Previous Version | Graphics & Text | Print | Product List | Glossary On
Versions: 1 2 3 4 5 6 7 8 9 10 11 12 13 14 15 16 17 18 19 20 21 22 23 24 25 26 27 28 29 30 31 32 33 34 35 36 37 38 39 40 41 42 43 44 45 46 47 48 49 50
000
ASUS43 KTOP 270408
RWRKS

WEATHER ROUNDUP FOR KANSAS
NATIONAL WEATHER SERVICE GOODLAND KS
1100 PM CDT THU MAR 26 2015

NOTE:  "FAIR" INDICATES FEW OR NO CLOUDS BELOW 12,000 FEET WITH NO
SIGNIFICANT WEATHER AND/OR OBSTRUCTIONS TO VISIBILITY.

KSZ001>006-013>018-027>032-041>047-270500-
NORTHWEST KANSAS

CITY           SKY/WX    TMP DP  RH WIND       PRES   REMARKS
GOODLAND       CLOUDY    48  32  53 NW7       30.18R
HAYS           PTCLDY    46  27  46 N15       30.12R
HILL CITY      MOCLDY    41  32  70 NE18      30.16R
RUSSELL        MOCLDY    43  34  70 N22G30    30.11R
$$

KSZ061>065-074>080-084>089-270500-
SOUTHWEST KANSAS

CITY           SKY/WX    TMP DP  RH WIND       PRES   REMARKS
DODGE CITY     CLOUDY    49  29  46 NW8       30.11S
ELKHART          N/A     47  26  44 W3          N/A
GARDEN CITY    MOCLDY    45  31  58 N10       30.13R
GREAT BEND     PTCLDY    48  27  43 N15       30.09R
LIBERAL        FAIR      50  28  43 N6        30.15R
PRATT          MOCLDY    50  30  46 N13       30.09R
$$

KSZ066>073-081>083-090>101-270500-
SOUTHEAST KANSAS

CITY           SKY/WX    TMP DP  RH WIND       PRES   REMARKS
CHANUTE        CLOUDY    47  36  65 VRB3      30.07R
COFFEYVILLE    MOCLDY    46  33  60 SE8       30.04F
HUTCHINSON     CLEAR     54  31  41 N12       30.04R
MEDICINE LODGE   N/A     53  32  44 N5        30.06R
NEWTON         PTCLDY    46  30  53 NE8       30.05R
PARSONS        CLOUDY    48  32  53 N9        30.10R
WICHITA INTL   PTCLDY    45  32  60 W7        30.03S
WICHITA JABRA  CLEAR     49  32  52 SW8       30.03R
WICHITA MCCONL CLEAR     48  33  55 SW8       30.03R
WINFIELD       CLEAR     44  31  60 SW3       30.05R
$$

KSZ007>012-019>026-033>040-048>060-102>105-270500-
NORTHEAST KANSAS

CITY           SKY/WX    TMP DP  RH WIND       PRES   REMARKS
CONCORDIA      CLOUDY    36  34  92 NE14      30.17R WCI  27
EMPORIA        CLOUDY    43  40  89 N10       30.11R
LAWRENCE       LGT RAIN  39  35  86 N14       30.15R WCI  31
MANHATTAN      LGT RAIN  39  36  89 NE20      30.15R WCI  29
MARYSVILLE     CLOUDY    34  34 100 NE6       30.19R
OLATHE IND     LGT RAIN  42  33  70 N10G23    30.14R
OLATHE EXE     CLOUDY    46  27  47 N12       30.11R
SALINA         PTCLDY    46  37  71 N16       30.10R
TOPEKA BILLARD LGT RAIN  38  35  89 NE15G26   30.15R WCI  29
TOPEKA FORBES  LGT RAIN  40  34  79 NE13      30.13S WCI  32
$$


USA.gov is the U.S. government's official web portal to all federal, state and local government web resources and services.